Location: Unspecified
(52.4292°N, 19.3359°E)
Time: 23:01:39
(UTC+02:00)

Envisat - Visible Passes

Search period start: 26 March 2023 00:00
Search period end: 05 April 2023 01:00
Orbit: 763 x 765 km, 98.2° (Epoch: 26 March)

Date Brightness Start Highest point End Pass type
(mag) Time Alt. Az. Time Alt. Az. Time Alt. Az.
26 Mar 4.3 04:14:31 10° NNE 04:19:17 39° E 04:24:01 10° SSE visible
26 Mar 3.6 05:53:37 10° N 05:58:17 38° WNW 06:02:56 10° SW visible
27 Mar 5.3 03:38:04 10° NE 03:41:50 20° E 03:45:34 10° SE visible
27 Mar 3.0 05:16:17 10° N 05:21:21 71° WNW 05:26:24 10° SSW visible
28 Mar 3.5 04:39:11 10° NNE 04:44:14 61° ESE 04:49:16 10° S visible
29 Mar 4.7 04:02:23 10° NNE 04:06:55 31° E 04:11:25 10° SSE visible
29 Mar 3.4 05:41:15 10° N 05:46:06 46° WNW 05:50:55 10° SW visible
30 Mar 5.6 03:26:13 10° NE 03:29:24 16° E 03:32:35 10° SE visible
30 Mar 3.0 05:03:59 10° NNE 05:09:06 86° WNW 05:14:10 10° SSW visible
31 Mar 3.9 04:26:58 10° NNE 04:31:55 49° E 04:36:50 10° S visible
01 Apr 5.0 03:50:19 10° NE 03:54:32 26° E 03:58:43 10° SSE visible
01 Apr 3.2 05:28:53 10° N 05:33:52 56° WNW 05:38:49 10° SW visible
02 Apr 5.7 03:14:33 10° NE 03:16:56 13° E 03:19:19 10° ESE visible
02 Apr 3.2 04:51:41 10° NNE 04:56:49 77° ESE 05:01:53 10° S visible
03 Apr 4.3 04:14:46 10° NNE 04:19:34 40° E 04:24:19 10° SSE visible
04 Apr 5.3 03:38:18 10° NE 03:42:06 21° E 03:45:54 10° SE visible
04 Apr 3.0 05:16:32 10° N 05:21:37 69° WNW 05:26:39 10° SSW visible
